Appleton, WI

4:05 AM CST on December 13, 2019 (GMT -0600)
Outagamie County Regional

Weather History for KATW - October, 2019

Change the Weather History Date:

Thursday, October 24, 2019

  Actual Average Record
Temperature  
Mean Temperature 37 °F -  
Max Temperature 42 °F 55 °F 76 °F (1963)
Min Temperature 32 °F 39 °F 23 °F (1999)
Degree Days  
Heating Degree Days 28    
Moisture  
Dew Point 28 °F    
Average Humidity 73    
Maximum Humidity 100    
Minimum Humidity 52    
Precipitation  
Precipitation 0.00 in - - ()
Sea Level Pressure  
Sea Level Pressure 30.18 in    
Wind  
Wind Speed 7 mph ()    
Max Wind Speed 15 mph    
Max Gust Speed -    
Visibility 10.0 miles    
Events      
Averages and records for this station are not official NWS values.
T = Trace of Precipitation, MM = Missing Value Source: Averaged Metar Reports

Daily Weather History Graph

Daily Weather History Graph

Search for Another Location

Airport or City:

Astronomy

Oct. 24, 2019 Rise Set
Actual Time 7:20 AM CDT 5:55 PM CDT
Civil Twilight 6:50 AM CDT 6:25 PM CDT
Nautical Twilight 6:16 AM CDT 6:59 PM CDT
Astronomical Twilight 5:43 AM CDT 7:32 PM CDT
Moon 2:36 AM CDT (10/24) 4:34 PM CDT (10/24)
Length of Visible Light 11h 34m
Length of Day
10h 35m
Waning Crescent, 16% of the Moon is Illuminated
Oct 24
Waning Crescent
Oct 27
New
Nov 4
First Quarter
Nov 12
Full
Nov 19
Last Quarter

Hourly Weather History & Observations

Time (CDT) Temp. Windchill Dew Point Humidity Pressure Visibility Wind Dir Wind Speed Gust Speed Precip Events Conditions
12:15 AM 37.4 °F 32.1 °F 30.2 °F 75% 30.00 in 10.0 mi WNW 6.9 mph - N/A   Scattered Clouds
12:35 AM 35.6 °F 29.9 °F 30.2 °F 81% 30.01 in 10.0 mi WNW 6.9 mph - N/A   Scattered Clouds
12:55 AM 35.6 °F 28.6 °F 30.2 °F 81% 30.02 in 10.0 mi West 9.2 mph - N/A   Clear
1:15 AM 35.6 °F 29.2 °F 30.2 °F 81% 30.02 in 10.0 mi West 8.1 mph - N/A   Clear
1:35 AM 35.6 °F 30.7 °F 30.2 °F 81% 30.02 in 10.0 mi West 5.8 mph - N/A   Clear
1:55 AM 33.8 °F 28.6 °F 30.2 °F 87% 30.03 in 10.0 mi West 5.8 mph - N/A   Clear
2:15 AM 35.6 °F 29.9 °F 30.2 °F 81% 30.05 in 10.0 mi West 6.9 mph - N/A   Clear
2:35 AM 33.8 °F 27.0 °F 30.2 °F 87% 30.05 in 10.0 mi West 8.1 mph - N/A   Clear
2:55 AM 33.8 °F 27.0 °F 30.2 °F 87% 30.06 in 10.0 mi West 8.1 mph - N/A   Clear
3:15 AM 33.8 °F 27.7 °F 30.2 °F 87% 30.07 in 10.0 mi West 6.9 mph - N/A   Clear
3:35 AM 33.8 °F 27.0 °F 32.0 °F 93% 30.09 in 10.0 mi West 8.1 mph - N/A   Clear
3:55 AM 33.8 °F 27.7 °F 30.2 °F 87% 30.08 in 10.0 mi West 6.9 mph - N/A   Clear
4:15 AM 33.8 °F 27.0 °F 32.0 °F 93% 30.09 in 10.0 mi WNW 8.1 mph - N/A   Clear
4:35 AM 33.8 °F 27.0 °F 32.0 °F 93% 30.10 in 10.0 mi WNW 8.1 mph - N/A   Clear
5:15 AM 33.8 °F 27.7 °F 32.0 °F 93% 30.12 in 10.0 mi West 6.9 mph - N/A   Clear
5:45 AM 33.8 °F 27.0 °F 30.2 °F 87% 30.14 in 10.0 mi West 8.1 mph - N/A   Partly Cloudy
6:45 AM 33.8 °F 27.0 °F 32.0 °F 93% 30.17 in 10.0 mi West 8.1 mph - N/A   Partly Cloudy
7:45 AM 32.0 °F 24.8 °F 32.0 °F 100% 30.19 in 10.0 mi West 8.1 mph - N/A   Clear
8:45 AM 35.6 °F 28.0 °F 33.8 °F 93% 30.20 in 10.0 mi WNW 10.4 mph - N/A   Clear
9:45 AM 39.2 °F 32.0 °F 30.2 °F 70% 30.23 in 10.0 mi WNW 11.5 mph - N/A   Partly Cloudy
10:45 AM 42.8 °F 37.5 °F 28.4 °F 57% 30.26 in 10.0 mi WNW 9.2 mph - N/A   Mostly Cloudy
11:45 AM 42.8 °F 37.0 °F 26.6 °F 53% 30.26 in 10.0 mi WNW 10.4 mph - N/A   Mostly Cloudy
12:45 PM 42.8 °F 35.8 °F 26.6 °F 53% 30.27 in 10.0 mi West 13.8 mph - N/A   Mostly Cloudy
1:45 PM 41.0 °F 33.1 °F 26.6 °F 57% 30.27 in 10.0 mi West 15.0 mph - N/A   Mostly Cloudy
2:45 PM 41.0 °F 34.3 °F 24.8 °F 53% 30.27 in 10.0 mi West 11.5 mph - N/A   Overcast
3:45 PM 41.0 °F 34.7 °F 26.6 °F 57% 30.28 in 10.0 mi West 10.4 mph - N/A   Overcast
4:45 PM 42.8 °F 37.5 °F 26.6 °F 53% 30.28 in 10.0 mi West 9.2 mph - N/A   Mostly Cloudy
5:45 PM 39.2 °F 33.6 °F 26.6 °F 61% 30.29 in 10.0 mi WNW 8.1 mph - N/A   Overcast
6:45 PM 39.2 °F 37.0 °F 28.4 °F 65% 30.29 in 10.0 mi West 3.5 mph - N/A   Overcast
7:45 PM 39.2 °F 35.9 °F 28.4 °F 65% 30.32 in 10.0 mi West 4.6 mph - N/A   Overcast
8:45 PM 39.2 °F 35.9 °F 24.8 °F 56% 30.32 in 10.0 mi WSW 4.6 mph - N/A   Overcast
9:45 PM 39.2 °F 34.2 °F 23.0 °F 52% 30.33 in 10.0 mi WNW 6.9 mph - N/A   Overcast
10:45 PM 37.4 °F 33.8 °F 21.2 °F 52% 30.33 in 10.0 mi WNW 4.6 mph - N/A   Overcast
10:55 PM 37.4 °F 32.8 °F 21.2 °F 52% 30.33 in 10.0 mi NW 5.8 mph - N/A   Overcast
11:15 PM 35.6 °F 32.8 °F 21.2 °F 56% 30.33 in 10.0 mi WNW 3.5 mph - N/A   Overcast
11:35 PM 35.6 °F 32.8 °F 21.2 °F 56% 30.32 in 10.0 mi NW 3.5 mph - N/A   Mostly Cloudy
11:55 PM 33.8 °F 30.8 °F 21.2 °F 60% 30.33 in 10.0 mi West 3.5 mph - N/A   Scattered Clouds